QPF
0.17 0.12 0.11 0.11 0.13 0.15 0.15 0.15 0.16 0.17 0.15 0.14 0.11 0.09 0.09 0.11 0.12 0.14 0.17 0.15 0.15 0.18 0.17 0.19 0.18 0.21 0.19 0.23 0.15 0.13 0.11 0.07 0.08 0.08 0.05 0.05 0.05 0.05 0.06 0.08 0.08 0.07 0.06
0.15 0.11 0.11 0.11 0.13 0.15 0.18 0.19 0.19 0.17 0.14 0.13 0.12 0.11 0.13 0.16 0.18 0.18 0.16 0.18 0.21 0.20 0.17 0.17 0.18 0.23 0.20 0.17 0.13 0.12 0.08 0.05 0.07 0.06 0.05 0.04 0.06 0.07 0.08 0.10 0.10 0.08 0.07
0.09 0.10 0.08 0.11 0.13 0.12 0.11 0.11 0.12 0.14 0.13 0.13 0.14 0.16 0.19 0.19 0.19 0.17 0.17 0.17 0.16 0.15 0.15 0.16 0.20 0.22 0.17 0.13 0.13 0.10 0.07 0.07 0.07 0.07 0.10 0.05 0.03 0.06 0.07 0.09 0.09 0.08 0.05
0.09 0.09 0.05 0.04 0.06 0.07 0.09 0.08 0.08 0.09 0.11 0.12 0.13 0.16 0.17 0.18 0.15 0.13 0.11 0.10 0.10 0.13 0.15 0.17 0.19 0.17 0.12 0.11 0.09 0.08 0.06 0.06 0.08 0.11 0.09 0.06 0.03 0.03 0.04 0.05 0.05 0.05 0.03
0.05 0.06 0.04 0.04 0.05 0.05 0.07 0.06 0.06 0.08 0.11 0.13 0.12 0.13 0.14 0.13 0.11 0.10 0.09 0.09 0.10 0.13 0.16 0.15 0.13 0.10 0.08 0.07 0.07 0.06 0.06 0.07 0.10 0.08 0.06 0.07 0.03 0.03 0.03 0.03 0.03 0.04 0.02
0.03 0.04 0.03 0.04 0.04 0.04 0.04 0.05 0.04 0.07 0.09 0.10 0.09 0.10 0.10 0.10 0.09 0.09 0.10 0.10 0.12 0.13 0.11 0.10 0.08 0.06 0.05 0.05 0.05 0.05 0.05 0.07 0.07 0.04 0.06 0.06 0.02 0.02 0.04 0.04 0.04 0.04 0.03
0.02 0.03 0.02 0.03 0.03 0.03 0.02 0.02 0.03 0.05 0.09 0.09 0.10 0.10 0.08 0.07 0.07 0.08 0.09 0.09 0.09 0.07 0.07 0.07 0.06 0.04 0.03 0.03 0.04 0.04 0.05 0.05 0.03 0.02 0.05 0.05 0.03 0.02 0.03 0.03 0.03 0.03 0.03
0.00 0.01 0.02 0.01 0.02 0.02 0.02 0.03 0.03 0.04 0.05 0.06 0.07 0.08 0.07 0.06 0.06 0.07 0.08 0.08 0.07 0.06 0.05 0.06 0.04 0.03 0.03 0.03 0.02 0.03 0.04 0.04 0.01 0.01 0.02 0.02 0.02 0.02 0.03 0.03 0.02 0.04 0.04
0.01 0.02 0.02 0.02 0.02 0.02 0.03 0.03 0.04 0.04 0.03 0.04 0.05 0.05 0.05 0.06 0.06 0.06 0.07 0.07 0.07 0.05 0.04 0.04 0.03 0.03 0.02 0.02 0.01 0.01 0.02 0.03 0.01 0.01 0.01 0.02 0.01 0.01 0.02 0.02 0.03 0.03 0.03
0.03 0.02 0.02 0.04 0.04 0.04 0.04 0.03 0.03 0.03 0.02 0.03 0.05 0.05 0.06 0.06 0.06 0.05 0.05 0.06 0.06 0.05 0.04 0.03 0.02 0.01 0.00 0.01 0.00 0.01 0.01 0.01 0.01 0.01 0.01 0.01 0.01 0.01 0.02 0.02 0.01 0.02 0.02
0.05 0.02 0.02 0.03 0.04 0.04 0.04 0.04 0.03 0.03 0.03 0.03 0.04 0.05 0.07 0.08 0.06 0.07 0.05 0.04 0.04 0.03 0.03 0.03 0.02 0.01 0.01 0.01 0.00 0.00 0.01 0.01 0.01 0.01 0.01 0.01 0.01 0.01 0.02 0.02 0.01 0.01 0.01
0.05 0.02 0.01 0.02 0.03 0.03 0.03 0.04 0.05 0.04 0.05 0.07 0.08 0.09 0.09 0.08 0.08 0.06 0.05 0.04 0.03 0.02 0.02 0.02 0.02 0.02 0.02 0.02 0.01 0.01 0.02 0.01 0.01 0.01 0.02 0.01 0.01 0.01 0.02 0.02 0.01 0.01 0.00
0.06 0.01 0.00 0.01 0.03 0.02 0.02 0.02 0.03 0.04 0.05 0.05 0.05 0.06 0.06 0.06 0.06 0.06 0.05 0.04 0.03 0.03 0.03 0.03 0.04 0.04 0.03 0.03 0.02 0.02 0.03 0.01 0.01 0.01 0.02 0.02 0.01 0.01 0.02 0.03 0.01 0.01 0.00
0.01 0.01 0.01 0.01 0.02 0.02 0.02 0.02 0.03 0.03 0.03 0.03 0.04 0.03 0.04 0.08 0.09 0.09 0.08 0.05 0.05 0.05 0.06 0.03 0.04 0.02 0.01 0.01 0.01 0.01 0.01 0.00 0.00 0.01 0.02 0.01 0.01 0.01 0.01 0.02 0.02 0.01 0.01
0.01 0.02 0.01 0.02 0.02 0.02 0.03 0.04 0.03 0.03 0.03 0.03 0.03 0.03 0.04 0.05 0.06 0.07 0.07 0.08 0.05 0.04 0.04 0.06 0.03 0.01 0.01 0.01 0.00 0.00 0.00 0.00 0.00 0.00 0.01 0.01 0.00 0.01 0.01 0.01 0.01 0.01 0.01
0.01 0.01 0.01 0.02 0.03 0.03 0.05 0.04 0.04 0.05 0.06 0.05 0.04 0.04 0.04 0.05 0.05 0.06 0.07 0.08 0.05 0.04 0.06 0.05 0.03 0.03 0.03 0.02 0.01 0.01 0.01 0.01 0.00 0.00 0.01 0.01 0.00 0.00 0.01 0.01 0.01 0.02 0.02
0.01 0.01 0.01 0.02 0.03 0.04 0.06 0.06 0.06 0.07 0.08 0.07 0.05 0.05 0.06 0.05 0.05 0.06 0.06 0.06 0.05 0.04 0.05 0.05 0.03 0.04 0.04 0.02 0.02 0.01 0.01 0.01 0.01 0.00 0.01 0.01 0.01 0.00 0.01 0.01 0.01 0.02 0.02
0.00 0.01 0.01 0.01 0.02 0.03 0.05 0.07 0.07 0.07 0.07 0.07 0.06 0.07 0.07 0.05 0.04 0.05 0.05 0.05 0.04 0.03 0.04 0.06 0.06 0.06 0.04 0.03 0.02 0.02 0.01 0.02 0.01 0.01 0.01 0.01 0.01 0.01 0.01 0.01 0.01 0.01 0.02
0.01 0.01 0.02 0.02 0.01 0.02 0.03 0.05 0.06 0.06 0.07 0.07 0.07 0.07 0.06 0.05 0.03 0.05 0.06 0.05 0.05 0.05 0.05 0.05 0.07 0.07 0.07 0.05 0.03 0.02 0.01 0.01 0.02 0.01 0.01 0.01 0.01 0.01 0.02 0.02 0.01 0.02 0.02
0.01 0.01 0.02 0.01 0.01 0.01 0.02 0.04 0.05 0.06 0.07 0.07 0.06 0.06 0.06 0.05 0.04 0.06 0.07 0.05 0.04 0.05 0.05 0.06 0.07 0.08 0.07 0.07 0.04 0.02 0.02 0.01 0.02 0.02 0.01 0.01 0.02 0.02 0.02 0.03 0.04 0.03 0.03
0.00 0.01 0.01 0.01 0.02 0.03 0.04 0.04 0.04 0.06 0.06 0.05 0.04 0.05 0.06 0.04 0.04 0.07 0.07 0.07 0.06 0.07 0.06 0.04 0.06 0.07 0.07 0.07 0.07 0.05 0.03 0.02 0.02 0.02 0.03 0.04 0.03 0.04 0.04 0.06 0.11 0.11 0.09
0.00 0.00 0.01 0.01 0.03 0.03 0.03 0.03 0.03 0.03 0.03 0.03 0.03 0.03 0.04 0.02 0.02 0.03 0.04 0.04 0.06 0.08 0.07 0.06 0.07 0.08 0.08 0.07 0.08 0.12 0.13 0.11 0.07 0.03 0.04 0.05 0.05 0.07 0.07 0.07 0.10 0.12 0.10
0.00 0.00 0.00 0.01 0.02 0.03 0.02 0.02 0.02 0.03 0.03 0.04 0.04 0.04 0.04 0.03 0.02 0.03 0.02 0.03 0.05 0.06 0.09 0.08 0.06 0.07 0.07 0.07 0.08 0.10 0.15 0.17 0.13 0.09 0.08 0.06 0.06 0.06 0.05 0.06 0.07 0.07 0.06
0.00 0.00 0.02 0.03 0.04 0.03 0.02 0.01 0.02 0.03 0.04 0.05 0.06 0.05 0.06 0.03 0.01 0.02 0.02 0.03 0.05 0.06 0.08 0.06 0.06 0.07 0.08 0.08 0.07 0.07 0.09 0.11 0.14 0.14 0.09 0.05 0.05 0.06 0.05 0.04 0.05 0.05 0.06
0.00 0.00 0.01 0.02 0.04 0.03 0.02 0.03 0.04 0.04 0.03 0.03 0.03 0.06 0.07 0.04 0.02 0.01 0.02 0.04 0.05 0.05 0.05 0.05 0.06 0.05 0.06 0.07 0.08 0.08 0.10 0.11 0.10 0.13 0.13 0.09 0.05 0.05 0.04 0.05 0.06 0.05 0.07
0.00 0.00 0.00 0.01 0.02 0.02 0.02 0.03 0.04 0.04 0.05 0.06 0.05 0.06 0.05 0.04 0.03 0.02 0.03 0.04 0.04 0.05 0.05 0.05 0.06 0.05 0.05 0.06 0.08 0.08 0.09 0.09 0.10 0.12 0.14 0.13 0.09 0.07 0.06 0.07 0.07 0.05 0.06
MSLP
1011.18 1010.80 1010.46 1010.20 1010.04 1009.95 1009.88 1009.80 1009.66 1009.47 1009.25 1009.06 1008.95 1008.96 1009.11 1009.39 1009.76 1010.18 1010.60 1011.01 1011.38 1011.73 1012.07 1012.41 1012.77 1013.15 1013.54 1013.94 1014.32 1014.68 1015.03 1015.37 1015.70 1016.03 1016.35 1016.66 1016.94 1017.19 1017.39 1017.56 1017.71 1017.86 1018.03
1011.37 1011.10 1010.86 1010.69 1010.59 1010.53 1010.47 1010.38 1010.23 1010.03 1009.83 1009.67 1009.60 1009.66 1009.84 1010.14 1010.50 1010.88 1011.25 1011.59 1011.89 1012.17 1012.45 1012.77 1013.12 1013.51 1013.91 1014.32 1014.71 1015.07 1015.41 1015.73 1016.04 1016.35 1016.67 1016.97 1017.25 1017.49 1017.69 1017.85 1017.99 1018.14 1018.31
1011.44 1011.26 1011.12 1011.04 1011.01 1011.01 1010.99 1010.92 1010.79 1010.63 1010.46 1010.34 1010.32 1010.41 1010.61 1010.90 1011.22 1011.55 1011.84 1012.10 1012.32 1012.55 1012.80 1013.11 1013.46 1013.87 1014.29 1014.70 1015.09 1015.44 1015.76 1016.06 1016.34 1016.64 1016.94 1017.23 1017.50 1017.74 1017.94 1018.11 1018.25 1018.41 1018.59
1011.35 1011.27 1011.23 1011.25 1011.32 1011.40 1011.46 1011.45 1011.37 1011.25 1011.13 1011.06 1011.07 1011.18 1011.37 1011.63 1011.90 1012.16 1012.38 1012.56 1012.73 1012.92 1013.16 1013.46 1013.84 1014.26 1014.69 1015.11 1015.48 1015.81 1016.09 1016.35 1016.61 1016.88 1017.17 1017.45 1017.73 1017.97 1018.17 1018.34 1018.50 1018.67 1018.88
1011.15 1011.16 1011.23 1011.37 1011.56 1011.76 1011.90 1011.97 1011.96 1011.90 1011.82 1011.78 1011.81 1011.92 1012.09 1012.31 1012.53 1012.72 1012.87 1013.00 1013.13 1013.31 1013.56 1013.88 1014.28 1014.71 1015.14 1015.54 1015.88 1016.16 1016.40 1016.62 1016.85 1017.10 1017.38 1017.67 1017.94 1018.19 1018.40 1018.59 1018.76 1018.95 1019.17
1010.88 1010.98 1011.18 1011.46 1011.78 1012.08 1012.33 1012.48 1012.53 1012.51 1012.47 1012.44 1012.48 1012.58 1012.74 1012.91 1013.09 1013.23 1013.34 1013.44 1013.57 1013.76 1014.02 1014.37 1014.78 1015.21 1015.63 1015.99 1016.28 1016.50 1016.69 1016.87 1017.07 1017.31 1017.59 1017.89 1018.18 1018.45 1018.67 1018.86 1019.04 1019.24 1019.48
1010.61 1010.81 1011.13 1011.54 1011.98 1012.40 1012.73 1012.94 1013.04 1013.05 1013.03 1013.01 1013.05 1013.14 1013.28 1013.44 1013.58 1013.70 1013.81 1013.91 1014.05 1014.25 1014.54 1014.90 1015.31 1015.73 1016.11 1016.42 1016.65 1016.81 1016.95 1017.09 1017.27 1017.51 1017.81 1018.14 1018.46 1018.74 1018.98 1019.17 1019.35 1019.54 1019.78
1010.42 1010.70 1011.12 1011.65 1012.19 1012.70 1013.09 1013.34 1013.45 1013.48 1013.45 1013.45 1013.48 1013.58 1013.72 1013.87 1014.03 1014.15 1014.26 1014.38 1014.54 1014.77 1015.07 1015.43 1015.83 1016.22 1016.55 1016.80 1016.96 1017.07 1017.16 1017.28 1017.46 1017.72 1018.05 1018.42 1018.77 1019.08 1019.33 1019.52 1019.68 1019.85 1020.07
1010.35 1010.69 1011.19 1011.79 1012.41 1012.95 1013.37 1013.62 1013.74 1013.75 1013.73 1013.73 1013.78 1013.90 1014.06 1014.25 1014.43 1014.58 1014.72 1014.86 1015.03 1015.27 1015.57 1015.92 1016.29 1016.63 1016.90 1017.09 1017.20 1017.26 1017.33 1017.44 1017.64 1017.94 1018.32 1018.73 1019.12 1019.46 1019.71 1019.89 1020.03 1020.16 1020.33
1010.41 1010.79 1011.33 1011.97 1012.60 1013.15 1013.55 1013.79 1013.88 1013.88 1013.86 1013.88 1013.97 1014.13 1014.34 1014.58 1014.80 1014.99 1015.16 1015.31 1015.49 1015.72 1015.99 1016.31 1016.63 1016.92 1017.14 1017.28 1017.35 1017.39 1017.45 1017.58 1017.81 1018.16 1018.58 1019.04 1019.48 1019.84 1020.10 1020.27 1020.37 1020.46 1020.59
1010.57 1010.97 1011.52 1012.16 1012.78 1013.29 1013.65 1013.84 1013.91 1013.90 1013.89 1013.94 1014.08 1014.31 1014.59 1014.89 1015.17 1015.39 1015.57 1015.73 1015.89 1016.09 1016.32 1016.59 1016.86 1017.10 1017.27 1017.38 1017.43 1017.47 1017.55 1017.70 1017.97 1018.36 1018.83 1019.34 1019.81 1020.19 1020.47 1020.63 1020.71 1020.76 1020.83
1010.82 1011.21 1011.75 1012.35 1012.92 1013.38 1013.67 1013.82 1013.85 1013.84 1013.86 1013.96 1014.17 1014.47 1014.83 1015.20 1015.52 1015.77 1015.96 1016.10 1016.23 1016.37 1016.55 1016.76 1016.98 1017.18 1017.33 1017.43 1017.48 1017.53 1017.63 1017.82 1018.12 1018.54 1019.04 1019.58 1020.08 1020.48 1020.77 1020.94 1021.01 1021.04 1021.08
1011.11 1011.49 1012.00 1012.55 1013.05 1013.43 1013.66 1013.76 1013.77 1013.77 1013.82 1013.99 1014.27 1014.65 1015.08 1015.50 1015.85 1016.12 1016.30 1016.41 1016.49 1016.58 1016.71 1016.86 1017.04 1017.21 1017.35 1017.45 1017.52 1017.60 1017.72 1017.93 1018.25 1018.69 1019.20 1019.74 1020.25 1020.68 1020.99 1021.18 1021.27 1021.30 1021.34
1011.43 1011.80 1012.27 1012.76 1013.18 1013.49 1013.66 1013.72 1013.72 1013.73 1013.83 1014.05 1014.40 1014.84 1015.32 1015.78 1016.15 1016.42 1016.57 1016.65 1016.68 1016.72 1016.80 1016.92 1017.07 1017.23 1017.38 1017.50 1017.60 1017.70 1017.84 1018.06 1018.37 1018.79 1019.29 1019.82 1020.32 1020.76 1021.10 1021.32 1021.45 1021.52 1021.58
1011.75 1012.11 1012.54 1012.97 1013.33 1013.57 1013.70 1013.73 1013.73 1013.77 1013.91 1014.18 1014.57 1015.05 1015.55 1016.02 1016.39 1016.64 1016.77 1016.81 1016.81 1016.82 1016.87 1016.97 1017.12 1017.28 1017.45 1017.59 1017.72 1017.84 1017.99 1018.19 1018.48 1018.86 1019.31 1019.80 1020.28 1020.72 1021.09 1021.36 1021.55 1021.68 1021.79
1012.07 1012.43 1012.83 1013.21 1013.51 1013.71 1013.80 1013.82 1013.84 1013.90 1014.07 1014.36 1014.77 1015.25 1015.74 1016.19 1016.54 1016.77 1016.88 1016.90 1016.89 1016.89 1016.93 1017.04 1017.19 1017.38 1017.57 1017.74 1017.89 1018.03 1018.17 1018.35 1018.58 1018.90 1019.28 1019.71 1020.15 1020.58 1020.96 1021.27 1021.53 1021.74 1021.92
1012.38 1012.74 1013.11 1013.44 1013.70 1013.87 1013.95 1013.98 1014.01 1014.10 1014.28 1014.57 1014.97 1015.42 1015.88 1016.29 1016.60 1016.81 1016.91 1016.93 1016.93 1016.95 1017.01 1017.14 1017.32 1017.53 1017.75 1017.94 1018.11 1018.24 1018.37 1018.51 1018.69 1018.93 1019.23 1019.58 1019.97 1020.36 1020.74 1021.09 1021.40 1021.68 1021.93
1012.64 1013.00 1013.35 1013.65 1013.88 1014.04 1014.13 1014.18 1014.23 1014.34 1014.52 1014.80 1015.15 1015.55 1015.95 1016.31 1016.59 1016.77 1016.87 1016.92 1016.95 1017.01 1017.11 1017.27 1017.48 1017.71 1017.95 1018.17 1018.34 1018.48 1018.59 1018.69 1018.82 1018.98 1019.20 1019.46 1019.77 1020.11 1020.46 1020.81 1021.16 1021.49 1021.80
1012.83 1013.18 1013.50 1013.79 1014.01 1014.17 1014.28 1014.37 1014.46 1014.58 1014.76 1015.01 1015.31 1015.65 1015.98 1016.27 1016.51 1016.69 1016.80 1016.89 1016.97 1017.08 1017.23 1017.42 1017.66 1017.91 1018.16 1018.39 1018.57 1018.71 1018.81 1018.89 1018.97 1019.07 1019.20 1019.38 1019.60 1019.86 1020.16 1020.48 1020.82 1021.17 1021.52
1012.89 1013.23 1013.54 1013.81 1014.04 1014.22 1014.38 1014.51 1014.64 1014.80 1014.98 1015.19 1015.44 1015.70 1015.96 1016.20 1016.41 1016.58 1016.72 1016.86 1017.00 1017.16 1017.35 1017.58 1017.83 1018.10 1018.35 1018.57 1018.76 1018.90 1019.01 1019.08 1019.14 1019.20 1019.27 1019.36 1019.49 1019.66 1019.87 1020.12 1020.42 1020.75 1021.10
1012.79 1013.12 1013.42 1013.69 1013.93 1014.15 1014.36 1014.56 1014.75 1014.94 1015.13 1015.33 1015.52 1015.72 1015.92 1016.11 1016.29 1016.46 1016.64 1016.82 1017.02 1017.23 1017.46 1017.71 1017.97 1018.23 1018.47 1018.70 1018.89 1019.04 1019.17 1019.25 1019.31 1019.35 1019.38 1019.40 1019.44 1019.50 1019.61 1019.77 1019.99 1020.27 1020.59
1012.49 1012.83 1013.12 1013.40 1013.68 1013.96 1014.24 1014.51 1014.77 1015.00 1015.21 1015.40 1015.56 1015.70 1015.85 1016.00 1016.16 1016.34 1016.54 1016.77 1017.01 1017.26 1017.52 1017.78 1018.03 1018.27 1018.50 1018.72 1018.91 1019.09 1019.25 1019.37 1019.45 1019.49 1019.49 1019.47 1019.43 1019.39 1019.39 1019.43 1019.55 1019.75 1020.02
1012.00 1012.35 1012.67 1012.97 1013.30 1013.64 1013.99 1014.34 1014.67 1014.96 1015.20 1015.38 1015.52 1015.63 1015.73 1015.85 1015.99 1016.18 1016.40 1016.66 1016.93 1017.21 1017.48 1017.73 1017.96 1018.18 1018.39 1018.60 1018.81 1019.02 1019.21 1019.38 1019.50 1019.57 1019.57 1019.51 1019.41 1019.29 1019.18 1019.11 1019.12 1019.23 1019.44
1011.37 1011.75 1012.09 1012.44 1012.81 1013.22 1013.65 1014.07 1014.47 1014.81 1015.07 1015.26 1015.38 1015.46 1015.53 1015.62 1015.75 1015.94 1016.17 1016.44 1016.74 1017.02 1017.29 1017.53 1017.75 1017.94 1018.13 1018.33 1018.55 1018.78 1019.02 1019.24 1019.41 1019.52 1019.54 1019.47 1019.34 1019.15 1018.96 1018.80 1018.72 1018.74 1018.89
1010.65 1011.07 1011.46 1011.86 1012.29 1012.75 1013.24 1013.73 1014.17 1014.55 1014.83 1015.02 1015.13 1015.19 1015.23 1015.29 1015.41 1015.58 1015.81 1016.09 1016.39 1016.68 1016.94 1017.17 1017.36 1017.54 1017.71 1017.91 1018.13 1018.39 1018.66 1018.92 1019.14 1019.29 1019.34 1019.29 1019.15 1018.93 1018.69 1018.47 1018.32 1018.28 1018.37
1009.93 1010.40 1010.85 1011.29 1011.77 1012.28 1012.81 1013.33 1013.80 1014.19 1014.48 1014.66 1014.75 1014.79 1014.81 1014.85 1014.94 1015.10 1015.32 1015.60 1015.89 1016.18 1016.44 1016.65 1016.83 1016.99 1017.16 1017.35 1017.57 1017.84 1018.13 1018.43 1018.69 1018.87 1018.96 1018.94 1018.81 1018.60 1018.36 1018.12 1017.94 1017.87 1017.92
Thickness
5786 5786 5785 5785 5785 5785 5785 5784 5784 5783 5783 5782 5781 5780 5779 5777 5776 5775 5773 5772 5771 5770 5769 5768 5766 5765 5763 5762 5760 5759 5758 5757 5755 5754 5753 5751 5750 5749 5748 5747 5746 5744 5742
5789 5786 5783 5783 5783 5783 5783 5782 5781 5781 5780 5780 5779 5778 5777 5775 5774 5773 5772 5771 5769 5768 5767 5766 5764 5763 5762 5760 5759 5757 5756 5755 5755 5753 5751 5749 5748 5747 5746 5745 5744 5742 5740
5791 5786 5783 5782 5782 5781 5780 5780 5779 5779 5778 5777 5776 5776 5775 5773 5772 5771 5770 5768 5767 5766 5764 5763 5762 5761 5760 5758 5757 5756 5755 5754 5753 5752 5751 5749 5746 5745 5744 5743 5742 5740 5739
5792 5786 5783 5781 5780 5780 5779 5779 5778 5777 5776 5775 5774 5773 5772 5770 5770 5769 5767 5767 5765 5764 5763 5761 5760 5759 5758 5757 5756 5755 5754 5753 5752 5751 5750 5748 5746 5744 5743 5741 5740 5739 5737
5792 5786 5781 5780 5779 5778 5778 5777 5777 5775 5774 5773 5772 5771 5770 5768 5767 5766 5765 5764 5764 5762 5761 5760 5759 5758 5757 5756 5755 5754 5753 5752 5752 5751 5750 5747 5745 5742 5741 5740 5739 5737 5736
5792 5786 5781 5779 5778 5777 5777 5776 5775 5774 5772 5771 5770 5769 5768 5766 5765 5764 5763 5762 5761 5761 5760 5759 5757 5756 5756 5755 5754 5754 5753 5752 5752 5751 5749 5746 5743 5741 5740 5739 5738 5736 5735
5793 5786 5781 5779 5778 5777 5776 5775 5774 5772 5770 5769 5768 5767 5766 5765 5763 5762 5761 5760 5759 5759 5758 5757 5756 5755 5755 5754 5754 5753 5753 5753 5753 5751 5748 5745 5742 5740 5739 5738 5737 5736 5734
5795 5788 5781 5778 5777 5776 5774 5773 5772 5770 5769 5767 5766 5765 5764 5763 5761 5760 5759 5758 5757 5757 5757 5756 5755 5755 5754 5754 5754 5754 5754 5754 5754 5751 5747 5743 5741 5739 5738 5737 5735 5734 5733
5798 5791 5785 5780 5777 5775 5773 5772 5770 5768 5767 5766 5764 5763 5762 5761 5760 5758 5757 5756 5756 5756 5755 5755 5754 5754 5754 5754 5754 5754 5754 5755 5754 5751 5747 5742 5740 5739 5737 5736 5734 5733 5732
5797 5794 5789 5784 5780 5777 5773 5771 5769 5767 5766 5765 5763 5762 5761 5760 5759 5757 5756 5755 5755 5755 5755 5754 5754 5754 5754 5754 5755 5755 5755 5754 5754 5750 5746 5742 5740 5738 5737 5735 5733 5732 5732
5794 5794 5792 5788 5784 5781 5776 5772 5769 5767 5765 5764 5762 5762 5761 5760 5759 5757 5756 5756 5756 5756 5755 5754 5754 5754 5754 5754 5755 5755 5755 5755 5754 5750 5746 5742 5740 5738 5736 5734 5733 5732 5731
5790 5792 5793 5790 5787 5784 5780 5774 5772 5770 5766 5765 5764 5763 5762 5762 5761 5759 5757 5756 5756 5756 5755 5755 5755 5755 5755 5756 5756 5756 5756 5756 5754 5750 5745 5742 5740 5738 5736 5734 5732 5731 5730
5793 5793 5792 5790 5788 5786 5782 5778 5775 5772 5769 5767 5766 5764 5763 5762 5761 5760 5758 5756 5756 5756 5756 5756 5756 5757 5758 5758 5758 5758 5757 5757 5755 5750 5745 5743 5740 5738 5737 5735 5733 5731 5730
5794 5793 5792 5790 5787 5785 5783 5781 5777 5775 5771 5769 5767 5765 5764 5762 5762 5762 5760 5759 5759 5759 5759 5758 5758 5759 5759 5759 5759 5759 5758 5757 5755 5749 5745 5743 5741 5739 5738 5735 5734 5732 5730
5794 5793 5792 5790 5786 5784 5782 5780 5779 5776 5773 5770 5768 5767 5765 5764 5763 5762 5761 5761 5760 5760 5760 5758 5759 5759 5759 5759 5759 5759 5759 5757 5755 5751 5746 5744 5742 5740 5739 5736 5734 5733 5731
5796 5794 5792 5789 5786 5784 5782 5780 5778 5776 5773 5771 5769 5767 5766 5764 5763 5762 5761 5761 5761 5761 5759 5759 5759 5759 5759 5759 5759 5759 5758 5757 5755 5752 5748 5745 5743 5742 5740 5738 5736 5734 5733
5799 5796 5793 5790 5787 5784 5782 5781 5779 5777 5775 5773 5770 5768 5766 5765 5763 5762 5762 5761 5761 5761 5760 5760 5759 5759 5759 5759 5759 5759 5759 5758 5756 5754 5751 5748 5745 5743 5742 5740 5738 5736 5735
5803 5798 5796 5794 5789 5785 5782 5781 5780 5778 5776 5773 5771 5769 5767 5766 5764 5764 5762 5762 5762 5762 5761 5760 5759 5758 5757 5758 5758 5759 5759 5759 5758 5756 5755 5752 5750 5747 5744 5742 5740 5738 5736
5805 5800 5797 5795 5790 5786 5783 5781 5779 5778 5776 5774 5772 5770 5769 5767 5766 5765 5763 5762 5762 5762 5762 5761 5759 5758 5756 5757 5758 5759 5759 5760 5759 5759 5758 5756 5754 5751 5748 5745 5742 5740 5738
5808 5803 5799 5795 5791 5787 5784 5781 5780 5779 5777 5776 5774 5772 5770 5768 5767 5766 5764 5763 5763 5762 5760 5759 5758 5759 5758 5757 5759 5759 5760 5761 5761 5760 5759 5759 5757 5754 5751 5748 5744 5742 5739
5809 5804 5800 5795 5792 5788 5784 5780 5778 5776 5777 5777 5775 5774 5772 5770 5768 5766 5765 5764 5763 5761 5760 5760 5759 5758 5758 5759 5756 5754 5759 5763 5762 5761 5761 5760 5758 5756 5754 5751 5747 5745 5742
5810 5806 5802 5797 5794 5790 5788 5785 5783 5781 5780 5780 5779 5776 5774 5772 5770 5769 5766 5764 5763 5761 5760 5760 5759 5757 5758 5760 5754 5748 5746 5750 5757 5762 5761 5759 5758 5757 5755 5753 5750 5747 5745
5813 5809 5806 5800 5796 5792 5791 5788 5786 5783 5781 5779 5777 5776 5775 5774 5772 5770 5768 5766 5764 5762 5760 5759 5759 5757 5754 5758 5759 5751 5742 5739 5746 5755 5758 5758 5757 5755 5754 5753 5750 5748 5745
5818 5814 5808 5803 5799 5796 5794 5790 5785 5780 5777 5779 5779 5778 5777 5776 5774 5772 5769 5767 5765 5763 5761 5761 5761 5759 5756 5753 5756 5757 5755 5751 5743 5741 5750 5755 5756 5753 5753 5752 5751 5748 5746
5823 5818 5812 5807 5802 5800 5796 5792 5788 5785 5784 5784 5783 5780 5778 5777 5776 5774 5771 5769 5766 5764 5763 5762 5761 5760 5758 5755 5754 5755 5754 5753 5751 5743 5739 5745 5749 5751 5751 5750 5749 5748 5745
5827 5822 5816 5809 5804 5801 5798 5795 5791 5788 5786 5783 5781 5779 5777 5777 5777 5775 5773 5771 5768 5766 5764 5763 5761 5760 5758 5757 5755 5754 5752 5749 5746 5745 5740 5740 5740 5745 5749 5749 5748 5746 5744